Location: Namasale
(1.5000°N, 32.6167°E)
Time: 13:38:28
(UTC+00:00)

CZ-2D R/B - Pass Details

Date: 09 April 2020
Orbit: 522 x 537 km, 97.4° (Epoch: 04 June)

Event Time Altitude Azimuth Distance (km) Brightness Sun altitude
Rises 16:24:47 0° 152° (SSE) 2,661 6.5 -8.2°
Reaches altitude 10° 16:27:04 10° 142° (SE) 1,767 5.5 -8.7°
Maximum altitude 16:30:28 31° 79° (ENE) 939 4.0 -9.6°
Drops below altitude 10° 16:33:49 10° 16° (NNE) 1,754 5.8 -10.4°
Sets 16:36:04 0° 5° (N) 2,637 6.8 -11.0°
